Location: Shepherdstown, WV
(39.4326°N, 77.8042°W)
Time: 10:46:43
(UTC-04:00)

Tiangong - Pass Details

Date: 30 June 2021
Orbit: 374 x 386 km, 41.5° (Epoch: 25 July)

Event Time Altitude Azimuth Distance (km) Brightness Sun altitude
Exits shadow 04:26:44 16° 273° (W) 1,096 3.0 -13.1°
Maximum altitude 04:28:59 44° 204° (SSW) 527 1.3 -12.8°
Drops below altitude 10° 04:31:59 10° 130° (SE) 1,384 3.9 -12.3°
Sets 04:34:05 0° 124° (ESE) 2,236 5.1 -12.1°
